Weather History for Monett, MO

Change the Weather History Date:

Sunday, December 2, 2012

  Actual Average (KJLN) Record (KJLN)
Temperature  
Mean Temperature 65 °F 41 °F  
Max Temperature 71 °F 51 °F 74 °F (1970)
Min Temperature 59 °F 31 °F 6 °F (2006)
Degree Days  
Heating Degree Days 0 24  
Month to date heating degree days 48  
Since 1 July heating degree days 805  
Cooling Degree Days 0 0  
Month to date cooling degree days 0  
Year to date cooling degree days 1698  
Growing Degree Days 15 (Base 50)    
Moisture  
Dew Point 58 °F    
Average Humidity 80    
Maximum Humidity 94    
Minimum Humidity 57    
Precipitation  
Precipitation 0.00 in 0.11 in 0.97 in (1990)
Month to date precipitation 0.22  
Year to date precipitation 43.95  
Sea Level Pressure  
Sea Level Pressure 29.99 in    
Wind  
Wind Speed 11 mph (SSW)    
Max Wind Speed 17 mph    
Max Gust Speed 23 mph    
Visibility 10 miles    
Events      
T = Trace of Precipitation, MM = Missing Value Source: NWS Daily Summary

Daily Weather History Graph

Daily Weather History Graph

Search for Another Location

Airport:

Trip Planner

Search our weather history database for the weather conditions in past years. The results will help you decide how hot, cold, wet, or windy it might be!

Date:

Astronomy

Dec. 02, 2012 Rise Set
Actual Time 7:11 AM CST 4:59 PM CST
Civil Twilight 6:43 AM CST 5:28 PM CST
Nautical Twilight 6:11 AM CST 6:00 PM CST
Astronomical Twilight 5:39 AM CST 6:31 PM CST
Moon 8:45 PM CST (12/2) 10:04 AM CST (12/2)
Length of Visible Light 10h 44m
Length of Day
9h 47m
Waning Gibbous, 85% of the Moon is Illuminated
Dec 2
Waning Gibbous
Dec 6
Last Quarter
Dec 13
New
Dec 19
First Quarter
Dec 28
Full

Hourly Weather History & Observations

Time (CST) Temp. Dew Point Humidity Pressure Visibility Wind Dir Wind Speed Gust Speed Precip Events Conditions
12:15 AM 62.6 °F 59.0 °F 88% 29.94 in 10.0 mi South 16.1 mph - N/A   Clear
12:35 AM 62.6 °F 59.0 °F 88% 29.94 in 10.0 mi South 13.8 mph - N/A   Clear
12:55 AM 62.6 °F 59.0 °F 88% 29.94 in 10.0 mi South 11.5 mph - N/A   Clear
1:15 AM 62.6 °F 59.0 °F 88% 29.95 in 10.0 mi South 11.5 mph 18.4 mph N/A   Clear
1:35 AM 62.6 °F 59.0 °F 88% 29.95 in 10.0 mi South 12.7 mph - N/A   Clear
1:55 AM 62.6 °F 59.0 °F 88% 29.95 in 10.0 mi SSW 13.8 mph - N/A   Clear
2:15 AM 62.6 °F 59.0 °F 88% 29.95 in 10.0 mi SSW 13.8 mph - N/A   Clear
2:35 AM 62.6 °F 59.0 °F 88% 29.96 in 10.0 mi SSW 11.5 mph - N/A   Clear
2:55 AM 62.6 °F 59.0 °F 88% 29.96 in 10.0 mi SSW 11.5 mph - N/A   Clear
3:15 AM 62.6 °F 59.0 °F 88% 29.96 in 10.0 mi SSW 10.4 mph - N/A   Clear
3:35 AM 60.8 °F 59.0 °F 94% 29.97 in 10.0 mi SSW 9.2 mph - N/A   Clear
3:55 AM 60.8 °F 59.0 °F 94% 29.96 in 10.0 mi SSW 10.4 mph - N/A   Clear
4:15 AM 60.8 °F 59.0 °F 94% 29.96 in 10.0 mi South 10.4 mph - N/A   Clear
4:35 AM 60.8 °F 59.0 °F 94% 29.96 in 10.0 mi SSW 10.4 mph - N/A   Clear
4:55 AM 60.8 °F 59.0 °F 94% 29.97 in 10.0 mi SSW 8.1 mph - N/A   Clear
5:15 AM 60.8 °F 59.0 °F 94% 29.97 in 10.0 mi SSW 9.2 mph - N/A   Clear
5:35 AM 60.8 °F 59.0 °F 94% 29.98 in 10.0 mi SSW 10.4 mph - N/A   Clear
5:55 AM 60.8 °F 59.0 °F 94% 29.99 in 10.0 mi SSW 9.2 mph - N/A   Clear
6:15 AM 60.8 °F 59.0 °F 94% 30.00 in 10.0 mi SSW 10.4 mph - N/A   Clear
6:35 AM 59.0 °F 57.2 °F 94% 30.00 in 10.0 mi SSW 8.1 mph - N/A   Mostly Cloudy
6:55 AM 60.8 °F 59.0 °F 94% 30.02 in 10.0 mi South 9.2 mph - N/A   Overcast
7:15 AM 60.8 °F 59.0 °F 94% 30.03 in 10.0 mi SSW 9.2 mph - N/A   Mostly Cloudy
7:35 AM 60.8 °F 59.0 °F 94% 30.03 in 10.0 mi SSW 9.2 mph - N/A   Mostly Cloudy
7:55 AM 60.8 °F 59.0 °F 94% 30.04 in 10.0 mi SSW 9.2 mph - N/A   Overcast
8:15 AM 62.6 °F 59.0 °F 88% 30.04 in 10.0 mi SSW 8.1 mph - N/A   Overcast
8:35 AM 62.6 °F 59.0 °F 88% 30.05 in 10.0 mi SW 5.8 mph - N/A   Overcast
8:55 AM 62.6 °F 59.0 °F 88% 30.05 in 10.0 mi SSW 6.9 mph - N/A   Mostly Cloudy
9:15 AM 62.6 °F 60.8 °F 94% 30.05 in 10.0 mi SSW 8.1 mph - N/A   Overcast
9:35 AM 64.4 °F 60.8 °F 88% 30.05 in 10.0 mi SSW 10.4 mph - N/A   Mostly Cloudy
10:15 AM 64.4 °F 59.0 °F 83% 30.06 in 10.0 mi SW 11.5 mph 18.4 mph N/A   Mostly Cloudy
10:35 AM 66.2 °F 59.0 °F 78% 30.05 in 10.0 mi SW 11.5 mph - N/A   Mostly Cloudy
10:55 AM 66.2 °F 57.2 °F 73% 30.05 in 10.0 mi SSW 13.8 mph 17.3 mph N/A   Scattered Clouds
11:15 AM 68.0 °F 59.0 °F 73% 30.05 in 10.0 mi SSW 11.5 mph - N/A   Clear
11:35 AM 68.0 °F 59.0 °F 73% 30.04 in 10.0 mi SW 8.1 mph - N/A   Scattered Clouds
11:55 AM 68.0 °F 59.0 °F 73% 30.03 in 10.0 mi SSW 9.2 mph - N/A   Mostly Cloudy
12:15 PM 68.0 °F 59.0 °F 73% 30.02 in 10.0 mi SW 9.2 mph - N/A   Mostly Cloudy
12:35 PM 69.8 °F 57.2 °F 64% 30.01 in 10.0 mi SW 10.4 mph - N/A   Mostly Cloudy
12:55 PM 69.8 °F 55.4 °F 60% 30.00 in 10.0 mi SSW 16.1 mph 23.0 mph N/A   Mostly Cloudy
1:15 PM 71.6 °F 55.4 °F 57% 29.99 in 10.0 mi South 17.3 mph 21.9 mph N/A   Mostly Cloudy
1:35 PM 71.6 °F 55.4 °F 57% 29.99 in 10.0 mi South 13.8 mph 20.7 mph N/A   Scattered Clouds
1:55 PM 71.6 °F 55.4 °F 57% 29.98 in 10.0 mi SSW 16.1 mph 20.7 mph N/A   Scattered Clouds
2:15 PM 71.6 °F 55.4 °F 57% 29.97 in 10.0 mi SSW 12.7 mph - N/A   Clear
2:35 PM 71.6 °F 55.4 °F 57% 29.97 in 10.0 mi South 13.8 mph - N/A   Clear
2:55 PM 71.6 °F 55.4 °F 57% 29.97 in 10.0 mi SW 10.4 mph 18.4 mph N/A   Clear
3:15 PM 71.6 °F 55.4 °F 57% 29.96 in 10.0 mi SSW 12.7 mph 16.1 mph N/A   Clear
3:35 PM 71.6 °F 55.4 °F 57% 29.97 in 10.0 mi SSW 12.7 mph 16.1 mph N/A   Clear
3:55 PM 71.6 °F 55.4 °F 57% 29.97 in 10.0 mi SSW 8.1 mph - N/A   Clear
4:15 PM 69.8 °F 55.4 °F 60% 29.97 in 10.0 mi South 8.1 mph - N/A   Clear
4:35 PM 68.0 °F 55.4 °F 64% 29.97 in 10.0 mi SSW 8.1 mph - N/A   Clear
4:55 PM 68.0 °F 55.4 °F 64% 29.97 in 10.0 mi SSW 9.2 mph - N/A   Scattered Clouds
5:15 PM 66.2 °F 55.4 °F 68% 29.97 in 10.0 mi South 5.8 mph - N/A   Mostly Cloudy
5:35 PM 66.2 °F 55.4 °F 68% 29.98 in 10.0 mi South 6.9 mph - N/A   Overcast
5:55 PM 66.2 °F 55.4 °F 68% 29.98 in 10.0 mi South 8.1 mph - N/A   Mostly Cloudy
6:15 PM 66.2 °F 57.2 °F 73% 29.99 in 10.0 mi South 10.4 mph - N/A   Scattered Clouds
6:35 PM 64.4 °F 57.2 °F 77% 29.99 in 10.0 mi South 10.4 mph - N/A   Clear
6:55 PM 64.4 °F 57.2 °F 77% 29.98 in 10.0 mi South 8.1 mph - N/A   Scattered Clouds
7:15 PM 62.6 °F 57.2 °F 82% 29.98 in 10.0 mi South 6.9 mph - N/A   Clear
7:35 PM 62.6 °F 57.2 °F 82% 29.97 in 10.0 mi SSE 6.9 mph - N/A   Clear
7:55 PM 62.6 °F 57.2 °F 82% 29.97 in 10.0 mi South 8.1 mph - N/A   Clear
8:15 PM 62.6 °F 57.2 °F 82% 29.97 in 10.0 mi SSE 9.2 mph - N/A   Clear
8:35 PM 62.6 °F 57.2 °F 82% 29.97 in 10.0 mi South 9.2 mph - N/A   Clear
8:55 PM 62.6 °F 57.2 °F 82% 29.97 in 10.0 mi South 9.2 mph - N/A   Clear
9:15 PM 62.6 °F 57.2 °F 82% 29.97 in 10.0 mi South 10.4 mph 17.3 mph N/A   Scattered Clouds
9:35 PM 62.6 °F 57.2 °F 82% 29.97 in 10.0 mi SSE 11.5 mph - N/A   Scattered Clouds
9:55 PM 62.6 °F 57.2 °F 82% 29.96 in 10.0 mi SSE 10.4 mph - N/A   Clear
10:15 PM 62.6 °F 57.2 °F 82% 29.96 in 10.0 mi South 10.4 mph - N/A   Clear
10:55 PM 62.6 °F 59.0 °F 88% 29.96 in 10.0 mi South 11.5 mph - N/A   Clear
11:15 PM 62.6 °F 59.0 °F 88% 29.96 in 10.0 mi South 13.8 mph - N/A   Clear
11:35 PM 62.6 °F 57.2 °F 82% 29.96 in 10.0 mi South 12.7 mph 18.4 mph N/A   Clear
11:55 PM 62.6 °F 57.2 °F 82% 29.96 in 10.0 mi South 12.7 mph 17.3 mph N/A   Clear